Weather History for LEMG - November, 2012

Change the Weather History Date:

Wednesday, November 7, 2012

  Actual Average Record
Temperature  
Mean Temperature 60 °F -  
Max Temperature 62 °F 63 °F 81 °F (2013)
Min Temperature 59 °F 49 °F 48 °F (2000)
Degree Days  
Heating Degree Days 5    
Growing Degree Days 10 (Base 50)    
Moisture  
Dew Point 58 °F    
Average Humidity 91    
Maximum Humidity 100    
Minimum Humidity 81    
Precipitation  
Precipitation 0.55 in 0.15 in - ()
Sea Level Pressure  
Sea Level Pressure 30.16 in    
Wind  
Wind Speed 10 mph ()    
Max Wind Speed 23 mph    
Max Gust Speed 37 mph    
Visibility 3.6 miles    
Events Rain    
Averages and records for this station are not official NWS values.
T = Trace of Precipitation, MM = Missing Value Source: Averaged Metar Reports

Daily Weather History Graph

Daily Weather History Graph

Search for Another Location

Airport or City:

Trip Planner

Search our weather history database for the weather conditions in past years. The results will help you decide how hot, cold, wet, or windy it might be!

Date:

Astronomy

Nov. 07, 2012 Rise Set
Actual Time 7:47 AM CET 6:14 PM CET
Civil Twilight 7:20 AM CET 6:42 PM CET
Nautical Twilight 6:49 AM CET 7:12 PM CET
Astronomical Twilight 6:19 AM CET 7:43 PM CET
Moon 12:38 AM CET (11/7) 2:06 PM CET (11/7)
Length of Visible Light 11h 21m
Length of Day
10h 27m
Last Quarter, 46% of the Moon is Illuminated
Nov 7
Last Quarter
Nov 13
New
Nov 20
First Quarter
Nov 28
Full
Dec 6
Last Quarter

Hourly Weather History & Observations

Time (CET) Temp. Dew Point Humidity Pressure Visibility Wind Dir Wind Speed Gust Speed Precip Events Conditions
12:00 AM 59.0 °F 57.2 °F 94% 30.15 in 3.7 mi ESE 11.5 mph - N/A Rain Light Rain
12:30 AM 59.0 °F 57.2 °F 94% 30.15 in 3.7 mi SE 9.2 mph - N/A Rain Light Rain
1:00 AM 60 °F 58 °F 89% 30.17 in 4 mi ESE 9.2 mph - - Rain Light Rain
1:00 AM 59.0 °F 57.2 °F 94% 30.15 in 3.7 mi ESE 9.2 mph - N/A Rain Light Rain
1:30 AM 59.0 °F 57.2 °F 94% 30.15 in 3.7 mi ESE 4.6 mph - N/A Rain Rain
2:00 AM 59.0 °F 57.2 °F 94% 30.12 in 3.7 mi SE 9.2 mph - N/A Rain Rain
2:30 AM 59.0 °F 59.0 °F 100% 30.09 in 3.7 mi East 9.2 mph - N/A Rain Rain
3:00 AM 60.8 °F 57.2 °F 88% 30.12 in 3.7 mi ESE 10.4 mph 23.0 mph N/A Rain Rain
3:30 AM 60.8 °F 57.2 °F 88% 30.12 in 3.7 mi ESE 12.7 mph - N/A   Mostly Cloudy
4:00 AM 60.8 °F 57.2 °F 88% 30.15 in 3.7 mi ESE 15.0 mph - N/A Rain Rain
4:30 AM 59.0 °F 57.2 °F 94% 30.12 in 3.7 mi East 15.0 mph - N/A Rain Rain
5:00 AM 60.8 °F 57.2 °F 88% 30.12 in 3.7 mi East 12.7 mph - N/A Rain Rain
5:30 AM 59.0 °F 57.2 °F 94% 30.12 in 3.7 mi ESE 20.7 mph - N/A Rain Rain
6:00 AM 60.8 °F 57.2 °F 88% 30.12 in 3.7 mi ESE 19.6 mph - N/A Rain Light Rain
6:30 AM 60.8 °F 57.2 °F 88% 30.12 in 5.0 mi ESE 18.4 mph - N/A Rain Light Rain
7:00 AM 60 °F 58 °F 90% 30.14 in 5 mi ESE 4.6 mph - - Rain Light Rain
7:00 AM 60.8 °F 57.2 °F 88% 30.12 in 5.0 mi ESE 16.1 mph - N/A   Mostly Cloudy
7:30 AM 60.8 °F 57.2 °F 88% 30.12 in 5.0 mi ESE 17.3 mph - N/A   Mostly Cloudy
8:00 AM 60.8 °F 57.2 °F 88% 30.18 in 3.1 mi ESE 15.0 mph - N/A Rain Light Rain
8:11 AM 59.0 °F 57.2 °F 94% 30.15 in 1.9 mi East 18.4 mph - N/A Rain Rain
8:30 AM 59.0 °F 57.2 °F 94% 30.12 in 3.1 mi ESE 23.0 mph - N/A Rain Rain
9:00 AM 60.8 °F 57.2 °F 88% 30.12 in 3.1 mi East 20.7 mph 34.5 mph N/A Rain Rain
9:30 AM 60.8 °F 57.2 °F 88% 30.15 in 4.3 mi East 19.6 mph 36.8 mph N/A   Mostly Cloudy
10:00 AM 60.8 °F 57.2 °F 88% 30.18 in 5.0 mi East 13.8 mph 26.5 mph N/A   Mostly Cloudy
10:30 AM 60.8 °F 57.2 °F 88% 30.15 in 5.0 mi East 15.0 mph 26.5 mph N/A   Mostly Cloudy
11:00 AM 60.8 °F 57.2 °F 88% 30.12 in 4.3 mi East 16.1 mph - N/A   Mostly Cloudy
12:00 PM 62.6 °F 57.2 °F 82% 30.21 in 3.1 mi South 10.4 mph - N/A Rain Rain
12:15 PM 62.6 °F 57.2 °F 82% 30.18 in 3.1 mi South 10.4 mph - N/A Rain Rain
12:18 PM 62.6 °F 57.2 °F 82% 30.15 in 1.9 mi ESE 15.0 mph - N/A Rain Heavy Rain
12:23 PM 60.8 °F 59.0 °F 94% 30.15 in 1.2 mi ESE 17.3 mph - N/A Rain Heavy Rain
12:30 PM 60.8 °F 59.0 °F 94% 30.15 in 1.2 mi ESE 16.1 mph - N/A Rain Heavy Rain
12:34 PM 60.8 °F 59.0 °F 94% 30.15 in 2.5 mi SE 11.5 mph - N/A Rain Rain
12:41 PM 60.8 °F 59.0 °F 94% 30.15 in 4.3 mi SE 9.2 mph - N/A Rain Light Rain
1:00 PM 61 °F 57 °F 83% 30.16 in 4 mi SE 5.8 mph - - Rain Light Rain
1:00 PM 60.8 °F 59.0 °F 94% 30.15 in 4.3 mi SE 5.8 mph - N/A   Mostly Cloudy
1:30 PM 60.8 °F 57.2 °F 88% 30.15 in 4.3 mi South 4.6 mph - N/A   Mostly Cloudy
2:00 PM 62.6 °F 57.2 °F 82% 30.15 in 4.3 mi SE 5.8 mph - N/A   Mostly Cloudy
2:15 PM 62.6 °F 57.2 °F 82% 30.21 in 3.1 mi SSW 9.2 mph - N/A Rain Rain
2:17 PM 62.6 °F 57.2 °F 82% 30.21 in 1.9 mi SW 9.2 mph - N/A Rain Rain
2:23 PM 60.8 °F 57.2 °F 88% 30.21 in 1.9 mi SW 10.4 mph - N/A Rain Heavy Rain
2:30 PM 60.8 °F 57.2 °F 88% 30.21 in 1.2 mi SW 8.1 mph - N/A Rain Heavy Rain
2:36 PM 60.8 °F 59.0 °F 94% 30.15 in 1.9 mi SSE 8.1 mph - N/A Rain Rain
2:51 PM 60.8 °F 59.0 °F 94% 30.15 in 3.1 mi SSE 9.2 mph - N/A Rain Light Rain
3:00 PM 60.8 °F 59.0 °F 94% 30.15 in 3.1 mi SSE 8.1 mph - N/A   Scattered Clouds
3:30 PM 60.8 °F 59.0 °F 94% 30.18 in 4.3 mi SSE 5.8 mph - N/A   Mostly Cloudy
4:00 PM 60.8 °F 59.0 °F 94% 30.18 in 3.7 mi Variable 2.3 mph - N/A   Mostly Cloudy
4:30 PM 60.8 °F 59.0 °F 94% 30.15 in 3.1 mi SSE 6.9 mph - N/A Rain Rain
4:36 PM 60.8 °F 59.0 °F 94% 30.15 in 1.9 mi ESE 8.1 mph - N/A Rain Rain
4:45 PM 60.8 °F 59.0 °F 94% 30.18 in 1.9 mi SE 5.8 mph - N/A Rain Rain
5:00 PM 60.8 °F 59.0 °F 94% 30.18 in 3.1 mi SSE 3.5 mph - N/A Rain Light Rain
5:04 PM 60.8 °F 57.2 °F 88% 30.18 in 6.2 mi SE 3.5 mph - N/A   Mostly Cloudy
5:30 PM 60.8 °F 59.0 °F 94% 30.15 in 4.3 mi Variable 2.3 mph - N/A   Mostly Cloudy
6:00 PM 60.8 °F 59.0 °F 94% 30.15 in 3.7 mi SE 3.5 mph - N/A   Mostly Cloudy
6:30 PM 60.8 °F 59.0 °F 94% 30.18 in 3.7 mi Variable 1.2 mph - N/A   Mostly Cloudy
7:00 PM 62 °F 58 °F 81% 30.19 in 4 mi 2.3 mph - -   Mist
7:00 PM 60.8 °F 59.0 °F 94% 30.18 in 4.3 mi Variable 2.3 mph - N/A   Mostly Cloudy
7:30 PM 60.8 °F 59.0 °F 94% 30.18 in 4.3 mi Variable 2.3 mph - N/A   Mostly Cloudy
8:00 PM 60.8 °F 59.0 °F 94% 30.18 in 4.3 mi NW 3.5 mph - N/A   Mostly Cloudy
8:30 PM 60.8 °F 59.0 °F 94% 30.18 in 4.3 mi WNW 6.9 mph - N/A   Scattered Clouds
9:00 PM 60.8 °F 59.0 °F 94% 30.18 in 4.3 mi West 3.5 mph - N/A   Scattered Clouds
9:30 PM 60.8 °F 59.0 °F 94% 30.15 in 4.3 mi Variable 2.3 mph - N/A   Scattered Clouds
10:00 PM 60.8 °F 59.0 °F 94% 30.18 in 4.3 mi West 4.6 mph - N/A   Scattered Clouds
10:30 PM 60.8 °F 59.0 °F 94% 30.18 in 4.3 mi West 3.5 mph - N/A   Mostly Cloudy
11:00 PM 60.8 °F 59.0 °F 94% 30.15 in 5.0 mi Calm Calm - N/A   Mostly Cloudy
11:30 PM 62.6 °F 59.0 °F 88% 30.15 in 5.0 mi ESE 4.6 mph - N/A   Mostly Cloudy